Starlink 3997

operational
NORAD ID: 52609 Int'l Des: 2022-052 Owner: SPXS Country: US Constellation: starlink
LEOCIRCULAR

关于 Starlink 3997

正在加载描述...

实时位置

正在加载3D地球...

即将过境

高度历史

Altitude vs Time

uPlot chart will show altitude changes over time

两行轨道根数

1 52609U 22052M 25296.91421703 -.00000672 00000-0 -24144-4 0 9990
2 52609 53.2168 173.0843 0001369 86.5378 273.5771 15.08840657190210
Epoch: Oct 23, 2025 • Age: 21 hours

当前状态

高度 545.1 km
速度 7.60 km/s
星下点 52.04°N, 42.48°W
发射日期 May 14, 2022
运行时间 3.4 years
类型 internet

技术详情

分类 Payload
质量 297.00 kg
干质量 275.00 kg
总质量 297.00 kg
长度 0.20 m
直径 2.80 m
跨度 9.00 m
形状 Box + pan
制造商 SPXS
平台类型 Starlink
阶段状态 In Orbit
所有者/国家 SPXS/US

大型星座

Loading constellations...